Regional Weather Roundup
Issued by NWS Newport/Morehead, NC

Current Version | Previous Version | Text Only | Print | Product List | Glossary On
Versions: 1 2 3 4 5 6 7 8 9 10 11 12 13 14 15 16 17 18 19 20 21 22 23 24 25 26 27 28 29 30 31 32 33 34 35 36 37 38 39 40 41 42 43 44 45 46 47 48 49 50
000
ASUS42 KMHX 180825
RWRMHX
WEATHER ROUNDUP FOR EASTERN NORTH CAROLINA
NATIONAL WEATHER SERVICE NEWPORT/MOREHEAD CITY NC
300 AM EST WED JAN 18 2017

NOTE: "FAIR" INDICATES FEW OR NO CLOUDS BELOW 12,000 FEET
WITH NO SIGNIFICANT WEATHER AND/OR OBSTRUCTIONS TO VISIBILITY

NCZ015>017-031-032-045>047-102-103-180900-
NORTH COAST

CITY           SKY/WX    TMP DP  RH WIND       PRES   REMARKS
EDENTON        CLOUDY    62  56  81 SW9       29.95F
ELIZABETH CITY CLOUDY    59  56  89 MISG      29.94F
KITTY HAWK     NOT AVBL
MANTEO         CLOUDY    56  55  95 SW13      29.96F

$$

NCZ045>047-081-094-103-104-180900-
CENTRAL COAST

CITY           SKY/WX    TMP DP  RH WIND       PRES   REMARKS
FRISCO         CLOUDY    62  58  86 W15G23    30.00F FOG

$$

NCZ095-097-098-100-101-180900-
SOUTHERN COAST

CITY           SKY/WX    TMP DP  RH WIND       PRES   REMARKS
BEAUFORT       CLOUDY    59  57  93 SW13      30.02F
CEDAR ISLAND   NOT AVBL
JACKSONVILLE   PTCLDY    62  58  86 SW9       30.00F
PINEY ISLAND   NOT AVBL
WILMINGTON     PTCLDY    62  58  86 SW12      30.03F


$$

NCZ011>013-027>030-043-044-078>080-089-090>093-098-180900-
COASTAL PLAIN

CITY           SKY/WX    TMP DP  RH WIND       PRES   REMARKS
AHOSKIE        CLOUDY    60  56  87 SW5       29.93F
CLINTON        CLOUDY    61  58  91 S3        30.00F
ELIZABETHTOWN  PTCLDY    61  57  88 SW7       30.02S
GOLDSBORO      MOCLDY    63  61  94 SW10      29.96F
GREENVILLE     CLOUDY    63  59  88 SW8       29.99S
HAVELOCK       CLOUDY    62  56  80 SW8       30.01F
KENANSVILLE    CLOUDY    63  57  82 SW9       29.99F
KINSTON        PTCLDY    61  56  85 S7        29.99F
NEW BERN       CLOUDY    61  56  83 SW7       30.01F
RICHLANDS      PTCLDY    60  57  89 SW8       30.01F
ROCKY MOUNT    CLOUDY    62  57  83 SW9       29.95F
WASHINGTON     CLOUDY    60  56  86 SW8       29.98F
WHITEVILLE     MOCLDY    62  57  83 SW13      30.03F

$$

AMZ130-135-150-152-154-156-158-170-250-252-270-ANZ085-086-088-633-658-670-180900-
MARINE OBSERVATIONS

STATION/POSITION TIME  TEMP    WIND        PRES    WAVE   SWELL
                       AIR SEA DIR/SP/G            HT/PER HT/PER
                 (UTC) (F)     (DEG/KT/KT) (MB)    (FT/S) (FT/S)
CHESAPEAKE LIGHT NOT AVBL
64 E VA BEACH    0750   58 57  220/ 19/ 23 1012.6    4/ 5   2/ 8
DUCK             0800   58 44  210/ 13/ 16 1012.9
2 E DUCK         0800      45                N/A     1/11
OREGON INLET     0800          200/ 13/ 15 1014.7
13E OREGON INLT  NOT AVBL
HATTERAS CG      0800   62 54  230/ 13/ 18 1015.1
DIAMOND BUOY     0750   70 71  240/ 23/ 27 1015.5    6/ 6   2/10
CAPE LOOKOUT     0800   62     230/ 10/ 14 1016.1
BEAUFORT LAB     0800   59 50  240/  7/ 11 1015.3
30 SE NEW RVR IN 0808   62 61  240/ 16/ 19 1016.7
30 SE NEW RVR IN 0813      61                N/A     5/ 5
27 SE WRIGHTSVLE 0708   67 69  220/ 19/ 27 1017.3
5 SE WRIGHTSVLE  NOT AVBL
225 S CAPE HAT   0750   72 72  220/ 17/ 21 1020.4    4/ 5   2/ 8
41 SE CHARLESTON 0750   71 70  220/ 17/ 21 1018.8    3/ 4   2/10

$$




USA.gov is the U.S. government's official web portal to all federal, state and local government web resources and services.